"Sample Date","Sample Time","Sample Value","Units","Flow Rate","Sample Interval","Number Channels","Micron Size 0","Counts/Channel 0","Micron Size 1","Counts/Channel 1","Micron Size 2","Counts/Channel 2","Micron Size 3","Counts/Channel 3","Micron Size 4","Counts/Channel 4","Micron Size 5","Counts/Channel 5","Micron Size 6","Counts/Channel 6","Micron Size 7","Counts/Channel 7","Micron Size 8","Counts/Channel 8","Micron Size 9","Counts/Channel 9","Micron Size 10","Counts/Channel 10","Micron Size 11","Counts/Channel 11","Micron Size 12","Counts/Channel 12","Micron Size 13","Counts/Channel 13","Micron Size 14","Counts/Channel 14","Micron Size 15","Counts/Channel 15","Micron Size 16","Counts/Channel 16","Micron Size 17","Counts/Channel 17","Micron Size 18","Counts/Channel 18","Micron Size 19","Counts/Channel 19","Micron Size 20","Counts/Channel 20","Micron Size 21","Counts/Channel 21","Micron Size 22","Counts/Channel 22","Micron Size 23","Counts/Channel 23","Micron Size 24","Counts/Channel 24","Micron Size 25","Counts/Channel 25","Micron Size 26","Counts/Channel 26","Micron Size 27","Counts/Channel 27","Micron Size 28","Counts/Channel 28","Micron Size 29","Counts/Channel 29","Micron Size 30","Counts/Channel 30","Micron Size 31","Counts/Channel 31"
"03/08/08","07:00:03",1264.000,"cc",28271.279,6.00,6,0.100,945.000,0.200,176.000,0.300,101.000,0.500,41.000,1.000,1.000,5.000,0
"03/08/08","07:00:09",1213.000,"cc",28314.141,6.00,6,0.100,907.000,0.200,180.000,0.300,88.000,0.500,34.000,1.000,4.000,5.000,0
"03/08/08","07:00:15",1192.000,"cc",28314.502,6.00,6,0.100,931.000,0.200,161.000,0.300,77.000,0.500,19.000,1.000,4.000,5.000,0
"03/08/08","07:00:21",1229.000,"cc",28314.129,6.00,6,0.100,953.000,0.200,169.000,0.300,77.000,0.500,27.000,1.000,3.000,5.000,0
"03/08/08","07:00:27",1261.000,"cc",28311.090,6.00,6,0.100,912.000,0.200,210.000,0.300,110.000,0.500,28.000,1.000,1.000,5.000,0
"03/08/08","07:00:33",1378.000,"cc",28349.598,6.00,6,0.100,1035.000,0.200,206.000,0.300,99.000,0.500,37.000,1.000,1.000,5.000,0
"03/08/08","07:00:39",1360.000,"cc",28300.625,6.00,6,0.100,992.000,0.200,208.000,0.300,117.000,0.500,41.000,1.000,2.000,5.000,0
"03/08/08","07:00:45",1228.000,"cc",28355.107,6.00,6,0.100,933.000,0.200,179.000,0.300,82.000,0.500,33.000,1.000,1.000,5.000,0
"03/08/08","07:00:51",1164.000,"cc",28286.627,6.00,6,0.100,875.000,0.200,173.000,0.300,82.000,0.500,30.000,1.000,4.000,5.000,0
"03/08/08","07:00:57",1222.000,"cc",28260.809,6.00,6,0.100,894.000,0.200,199.000,0.300,88.000,0.500,41.000,1.000,0,5.000,0
"03/08/08","07:01:03",1300.000,"cc",28316.188,6.00,6,0.100,962.000,0.200,220.000,0.300,91.000,0.500,23.000,1.000,4.000,5.000,0
"03/08/08","07:01:09",1303.000,"cc",28326.279,6.00,6,0.100,964.000,0.200,209.000,0.300,92.000,0.500,37.000,1.000,1.000,5.000,0
"03/08/08","07:01:15",1316.000,"cc",28283.994,6.00,6,0.100,985.000,0.200,205.000,0.300,82.000,0.500,43.000,1.000,1.000,5.000,0
"03/08/08","07:01:21",1342.000,"cc",28322.535,6.00,6,0.100,1002.000,0.200,211.000,0.300,101.000,0.500,24.000,1.000,4.000,5.000,0
"03/08/08","07:01:27",1284.000,"cc",28339.344,6.00,6,0.100,954.000,0.200,195.000,0.300,105.000,0.500,30.000,1.000,0,5.000,0
"03/08/08","07:01:33",1267.000,"cc",28294.664,6.00,6,0.100,928.000,0.200,202.000,0.300,107.000,0.500,29.000,1.000,1.000,5.000,0
"03/08/08","07:01:39",1323.000,"cc",28325.184,6.00,6,0.100,989.000,0.200,205.000,0.300,103.000,0.500,24.000,1.000,2.000,5.000,0
"03/08/08","07:01:45",1290.000,"cc",28284.156,6.00,6,0.100,970.000,0.200,186.000,0.300,99.000,0.500,34.000,1.000,1.000,5.000,0
"03/08/08","07:01:51",1165.000,"cc",28345.055,6.00,6,0.100,872.000,0.200,172.000,0.300,75.000,0.500,46.000,1.000,0,5.000,0
"03/08/08","07:01:57",1196.000,"cc",28298.008,6.00,6,0.100,901.000,0.200,186.000,0.300,76.000,0.500,33.000,1.000,0,5.000,0
"03/08/08","07:02:03",1116.000,"cc",28316.621,6.00,6,0.100,834.000,0.200,174.000,0.300,79.000,0.500,28.000,1.000,1.000,5.000,0
"03/08/08","07:02:09",1080.000,"cc",28336.074,6.00,6,0.100,819.000,0.200,175.000,0.300,56.000,0.500,27.000,1.000,3.000,5.000,0
"03/08/08","07:02:15",991.000,"cc",28291.609,6.00,6,0.100,788.000,0.200,137.000,0.300,53.000,0.500,9.000,1.000,4.000,5.000,0
"03/08/08","07:02:21",996.000,"cc",28363.426,6.00,6,0.100,764.000,0.200,147.000,0.300,68.000,0.500,16.000,1.000,1.000,5.000,0
"03/08/08","07:02:27",970.000,"cc",28321.078,6.00,6,0.100,754.000,0.200,137.000,0.300,58.000,0.500,19.000,1.000,2.000,5.000,0
"03/08/08","07:02:33",992.000,"cc",28334.656,6.00,6,0.100,774.000,0.200,135.000,0.300,64.000,0.500,18.000,1.000,1.000,5.000,0
"03/08/08","07:02:39",1020.000,"cc",28308.848,6.00,6,0.100,802.000,0.200,137.000,0.300,62.000,0.500,18.000,1.000,1.000,5.000,0
"03/08/08","07:02:45",807.000,"cc",28363.133,6.00,6,0.100,640.000,0.200,104.000,0.300,48.000,0.500,14.000,1.000,1.000,5.000,0
"03/08/08","07:02:51",804.000,"cc",28273.904,6.00,6,0.100,638.000,0.200,123.000,0.300,30.000,0.500,11.000,1.000,2.000,5.000,0
"03/08/08","07:02:57",854.000,"cc",28245.350,6.00,6,0.100,694.000,0.200,109.000,0.300,44.000,0.500,7.000,1.000,0,5.000,0
"03/08/08","07:03:03",843.000,"cc",28326.738,6.00,6,0.100,663.000,0.200,121.000,0.300,40.000,0.500,18.000,1.000,1.000,5.000,0
"03/08/08","07:03:09",931.000,"cc",28331.568,6.00,6,0.100,726.000,0.200,132.000,0.300,55.000,0.500,17.000,1.000,1.000,5.000,0
"03/08/08","07:03:15",964.000,"cc",28354.346,6.00,6,0.100,746.000,0.200,145.000,0.300,55.000,0.500,17.000,1.000,1.000,5.000,0
"03/08/08","07:03:21",1027.000,"cc",28252.402,6.00,6,0.100,825.000,0.200,136.000,0.300,51.000,0.500,13.000,1.000,2.000,5.000,0
"03/08/08","07:03:27",846.000,"cc",28316.719,6.00,6,0.100,665.000,0.200,117.000,0.300,50.000,0.500,14.000,1.000,0,5.000,0
"03/08/08","07:03:33",910.000,"cc",28291.723,6.00,6,0.100,721.000,0.200,131.000,0.300,48.000,0.500,10.000,1.000,0,5.000,0
"03/08/08","07:03:39",849.000,"cc",28366.854,6.00,6,0.100,656.000,0.200,136.000,0.300,49.000,0.500,8.000,1.000,0,5.000,0
"03/08/08","07:03:45",867.000,"cc",28339.994,6.00,6,0.100,687.000,0.200,114.000,0.300,52.000,0.500,14.000,1.000,0,5.000,0
"03/08/08","07:03:51",880.000,"cc",28271.420,6.00,6,0.100,672.000,0.200,143.000,0.300,47.000,0.500,17.000,1.000,1.000,5.000,0
"03/08/08","07:03:57",894.000,"cc",28329.119,6.00,6,0.100,677.000,0.200,150.000,0.300,54.000,0.500,13.000,1.000,0,5.000,0
"03/08/08","07:04:03",901.000,"cc",28318.504,6.00,6,0.100,668.000,0.200,148.000,0.300,63.000,0.500,20.000,1.000,2.000,5.000,0
"03/08/08","07:04:09",841.000,"cc",28369.166,6.00,6,0.100,646.000,0.200,118.000,0.300,57.000,0.500,20.000,1.000,0,5.000,0
"03/08/08","07:04:15",816.000,"cc",28310.816,6.00,6,0.100,631.000,0.200,126.000,0.300,48.000,0.500,10.000,1.000,1.000,5.000,0
"03/08/08","07:04:21",917.000,"cc",28266.031,6.00,6,0.100,682.000,0.200,153.000,0.300,58.000,0.500,22.000,1.000,2.000,5.000,0
"03/08/08","07:04:27",848.000,"cc",28335.027,6.00,6,0.100,666.000,0.200,107.000,0.300,51.000,0.500,23.000,1.000,1.000,5.000,0
"03/08/08","07:04:33",992.000,"cc",28278.897,6.00,6,0.100,763.000,0.200,149.000,0.300,56.000,0.500,21.000,1.000,3.000,5.000,0
"03/08/08","07:04:39",959.000,"cc",28347.467,6.00,6,0.100,737.000,0.200,139.000,0.300,61.000,0.500,21.000,1.000,1.000,5.000,0
"03/08/08","07:04:45",915.000,"cc",28352.754,6.00,6,0.100,707.000,0.200,146.000,0.300,51.000,0.500,10.000,1.000,1.000,5.000,0
"03/08/08","07:04:51",949.000,"cc",28250.039,6.00,6,0.100,726.000,0.200,144.000,0.300,59.000,0.500,19.000,1.000,1.000,5.000,0
"03/08/08","07:04:57",838.000,"cc",28303.697,6.00,6,0.100,650.000,0.200,109.000,0.300,62.000,0.500,15.000,1.000,2.000,5.000,0
"03/08/08","07:05:03",980.000,"cc",28259.018,6.00,6,0.100,754.000,0.200,143.000,0.300,55.000,0.500,27.000,1.000,1.000,5.000,0
"03/08/08","07:05:09",888.000,"cc",28303.639,6.00,6,0.100,682.000,0.200,122.000,0.300,53.000,0.500,30.000,1.000,1.000,5.000,0
"03/08/08","07:05:15",951.000,"cc",28299.209,6.00,6,0.100,724.000,0.200,119.000,0.300,67.000,0.500,38.000,1.000,3.000,5.000,0
"03/08/08","07:05:21",992.000,"cc",28353.727,6.00,6,0.100,750.000,0.200,144.000,0.300,59.000,0.500,33.000,1.000,6.000,5.000,0
"03/08/08","07:05:27",1051.000,"cc",28360.945,6.00,6,0.100,816.000,0.200,152.000,0.300,56.000,0.500,25.000,1.000,2.000,5.000,0
"03/08/08","07:05:33",1037.000,"cc",28259.391,6.00,6,0.100,793.000,0.200,136.000,0.300,77.000,0.500,28.000,1.000,3.000,5.000,0
"03/08/08","07:05:39",1057.000,"cc",28274.789,6.00,6,0.100,794.000,0.200,162.000,0.300,66.000,0.500,33.000,1.000,2.000,5.000,0
"03/08/08","07:05:45",1045.000,"cc",28372.438,6.00,6,0.100,786.000,0.200,144.000,0.300,78.000,0.500,36.000,1.000,1.000,5.000,0
"03/08/08","07:05:51",1018.000,"cc",28358.541,6.00,6,0.100,747.000,0.200,163.000,0.300,71.000,0.500,36.000,1.000,1.000,5.000,0
"03/08/08","07:05:57",938.000,"cc",28279.053,6.00,6,0.100,708.000,0.200,128.000,0.300,70.000,0.500,30.000,1.000,2.000,5.000,0
"03/08/08","07:06:03",1104.000,"cc",28276.494,6.00,6,0.100,811.000,0.200,153.000,0.300,83.000,0.500,55.000,1.000,2.000,5.000,0
"03/08/08","07:06:09",1079.000,"cc",28270.389,6.00,6,0.100,812.000,0.200,152.000,0.300,80.000,0.500,31.000,1.000,4.000,5.000,0
"03/08/08","07:06:15",1032.000,"cc",28417.184,6.00,6,0.100,797.000,0.200,136.000,0.300,72.000,0.500,26.000,1.000,1.000,5.000,0
"03/08/08","07:06:21",1125.000,"cc",28314.170,6.00,6,0.100,854.000,0.200,155.000,0.300,80.000,0.500,32.000,1.000,4.000,5.000,0
"03/08/08","07:06:27",1045.000,"cc",28300.418,6.00,6,0.100,796.000,0.200,127.000,0.300,88.000,0.500,31.000,1.000,3.000,5.000,0
"03/08/08","07:06:33",1034.000,"cc",28292.213,6.00,6,0.100,803.000,0.200,128.000,0.300,71.000,0.500,28.000,1.000,4.000,5.000,0
"03/08/08","07:06:39",936.000,"cc",28312.359,6.00,6,0.100,707.000,0.200,140.000,0.300,57.000,0.500,30.000,1.000,2.000,5.000,0
"03/08/08","07:06:45",1081.000,"cc",28302.193,6.00,6,0.100,842.000,0.200,127.000,0.300,71.000,0.500,37.000,1.000,4.000,5.000,0
"03/08/08","07:06:51",1069.000,"cc",28342.318,6.00,6,0.100,821.000,0.200,143.000,0.300,68.000,0.500,34.000,1.000,3.000,5.000,0
"03/08/08","07:06:57",1049.000,"cc",28276.967,6.00,6,0.100,805.000,0.200,150.000,0.300,66.000,0.500,26.000,1.000,2.000,5.000,0
"03/08/08","07:07:03",1008.000,"cc",28331.012,6.00,6,0.100,782.000,0.200,140.000,0.300,59.000,0.500,23.000,1.000,4.000,5.000,0
"03/08/08","07:07:09",1008.000,"cc",28261.356,6.00,6,0.100,776.000,0.200,143.000,0.300,66.000,0.500,23.000,1.000,0,5.000,0
"03/08/08","07:07:15",1022.000,"cc",28319.272,6.00,6,0.100,785.000,0.200,139.000,0.300,68.000,0.500,28.000,1.000,2.000,5.000,0
"03/08/08","07:07:21",1078.000,"cc",28376.373,6.00,6,0.100,825.000,0.200,141.000,0.300,84.000,0.500,28.000,1.000,0,5.000,0
"03/08/08","07:07:27",1043.000,"cc",28356.732,6.00,6,0.100,793.000,0.200,148.000,0.300,61.000,0.500,40.000,1.000,1.000,5.000,0
"03/08/08","07:07:33",1005.000,"cc",28300.387,6.00,6,0.100,771.000,0.200,146.000,0.300,67.000,0.500,19.000,1.000,2.000,5.000,0
"03/08/08","07:07:39",1076.000,"cc",28273.900,6.00,6,0.100,834.000,0.200,158.000,0.300,63.000,0.500,20.000,1.000,1.000,5.000,0
"03/08/08","07:07:45",958.000,"cc",28269.320,6.00,6,0.100,715.000,0.200,135.000,0.300,67.000,0.500,37.000,1.000,4.000,5.000,0
"03/08/08","07:07:51",947.000,"cc",28292.213,6.00,6,0.100,719.000,0.200,130.000,0.300,68.000,0.500,30.000,1.000,0,5.000,0
"03/08/08","07:07:57",944.000,"cc",28369.002,6.00,6,0.100,738.000,0.200,124.000,0.300,51.000,0.500,28.000,1.000,3.000,5.000,0
"03/08/08","07:08:03",949.000,"cc",28312.772,6.00,6,0.100,755.000,0.200,122.000,0.300,50.000,0.500,21.000,1.000,1.000,5.000,0
"03/08/08","07:08:09",1012.000,"cc",28338.219,6.00,6,0.100,743.000,0.200,149.000,0.300,87.000,0.500,32.000,1.000,1.000,5.000,0
"03/08/08","07:08:15",1078.000,"cc",28329.119,6.00,6,0.100,815.000,0.200,169.000,0.300,67.000,0.500,25.000,1.000,2.000,5.000,0
"03/08/08","07:08:21",1081.000,"cc",28297.979,6.00,6,0.100,804.000,0.200,163.000,0.300,83.000,0.500,29.000,1.000,2.000,5.000,0
"03/08/08","07:08:27",1100.000,"cc",28288.920,6.00,6,0.100,851.000,0.200,146.000,0.300,76.000,0.500,23.000,1.000,4.000,5.000,0
"03/08/08","07:08:33",1069.000,"cc",28376.137,6.00,6,0.100,798.000,0.200,168.000,0.300,76.000,0.500,25.000,1.000,2.000,5.000,0
"03/08/08","07:08:39",1055.000,"cc",28342.422,6.00,6,0.100,815.000,0.200,130.000,0.300,77.000,0.500,31.000,1.000,2.000,5.000,0
"03/08/08","07:08:45",1055.000,"cc",28298.236,6.00,6,0.100,782.000,0.200,160.000,0.300,73.000,0.500,39.000,1.000,1.000,5.000,0
"03/08/08","07:08:51",1001.000,"cc",28293.580,6.00,6,0.100,761.000,0.200,137.000,0.300,70.000,0.500,30.000,1.000,3.000,5.000,0
"03/08/08","07:08:57",940.000,"cc",28327.818,6.00,6,0.100,693.000,0.200,139.000,0.300,81.000,0.500,24.000,1.000,3.000,5.000,0
"03/08/08","07:09:03",1081.000,"cc",28275.816,6.00,6,0.100,804.000,0.200,160.000,0.300,84.000,0.500,30.000,1.000,3.000,5.000,0
"03/08/08","07:09:09",1178.000,"cc",28339.822,6.00,6,0.100,837.000,0.200,176.000,0.300,101.000,0.500,61.000,1.000,3.000,5.000,0
"03/08/08","07:09:15",1121.000,"cc",28378.824,6.00,6,0.100,844.000,0.200,163.000,0.300,77.000,0.500,34.000,1.000,3.000,5.000,0
"03/08/08","07:09:21",1038.000,"cc",28289.438,6.00,6,0.100,790.000,0.200,138.000,0.300,79.000,0.500,27.000,1.000,4.000,5.000,0
"03/08/08","07:09:27",1118.000,"cc",28329.395,6.00,6,0.100,841.000,0.200,157.000,0.300,64.000,0.500,50.000,1.000,6.000,5.000,0
"03/08/08","07:09:33",1066.000,"cc",28284.658,6.00,6,0.100,798.000,0.200,150.000,0.300,88.000,0.500,28.000,1.000,2.000,5.000,0
"03/08/08","07:09:39",1253.000,"cc",28306.713,6.00,6,0.100,872.000,0.200,227.000,0.300,98.000,0.500,50.000,1.000,6.000,5.000,0
"03/08/08","07:09:45",1221.000,"cc",28346.846,6.00,6,0.100,853.000,0.200,219.000,0.300,91.000,0.500,53.000,1.000,5.000,5.000,0
"03/08/08","07:09:51",1229.000,"cc",28328.422,6.00,6,0.100,860.000,0.200,199.000,0.300,97.000,0.500,62.000,1.000,11.000,5.000,0
"03/08/08","07:09:57",1116.000,"cc",28351.357,6.00,6,0.100,789.000,0.200,189.000,0.300,99.000,0.500,37.000,1.000,2.000,5.000,0
"03/08/08","07:10:03",1149.000,"cc",28294.264,6.00,6,0.100,832.000,0.200,183.000,0.300,90.000,0.500,38.000,1.000,6.000,5.000,0
"03/08/08","07:10:09",1185.000,"cc",28270.076,6.00,6,0.100,891.000,0.200,189.000,0.300,71.000,0.500,31.000,1.000,3.000,5.000,0
"03/08/08","07:10:15",1220.000,"cc",28292.018,6.00,6,0.100,911.000,0.200,166.000,0.300,84.000,0.500,57.000,1.000,2.000,5.000,0
"03/08/08","07:10:21",1541.000,"cc",28349.307,6.00,6,0.100,1125.000,0.200,235.000,0.300,120.000,0.500,53.000,1.000,8.000,5.000,0
"03/08/08","07:10:27",2467.000,"cc",28331.473,6.00,6,0.100,2022.000,0.200,303.000,0.300,81.000,0.500,53.000,1.000,8.000,5.000,0
"03/08/08","07:10:33",4645.000,"cc",28306.635,6.00,6,0.100,3787.000,0.200,553.000,0.300,187.000,0.500,102.000,1.000,16.000,5.000,0
"03/08/08","07:10:39",16602.000,"cc",28389.363,6.00,6,0.100,14836.000,0.200,1456.000,0.300,219.000,0.500,79.000,1.000,12.000,5.000,0
"03/08/08","07:10:45",6252.000,"cc",28284.316,6.00,6,0.100,5451.000,0.200,594.000,0.300,135.000,0.500,62.000,1.000,10.000,5.000,0
"03/08/08","07:10:51",9919.000,"cc",28306.109,6.00,6,0.100,8707.000,0.200,984.000,0.300,154.000,0.500,66.000,1.000,8.000,5.000,0
"03/08/08","07:10:57",15639.000,"cc",28298.932,6.00,6,0.100,13659.000,0.200,1534.000,0.300,286.000,0.500,139.000,1.000,21.000,5.000,0
"03/08/08","07:11:03",10216.000,"cc",28270.029,6.00,6,0.100,8990.000,0.200,960.000,0.300,186.000,0.500,70.000,1.000,10.000,5.000,0
"03/08/08","07:11:09",12075.000,"cc",28324.565,6.00,6,0.100,10619.000,0.200,1207.000,0.300,167.000,0.500,69.000,1.000,13.000,5.000,0
"03/08/08","07:11:15",38970.000,"cc",28263.500,6.00,6,0.100,35100.000,0.200,3587.000,0.300,211.000,0.500,65.000,1.000,7.000,5.000,0
"03/08/08","07:11:21",66350.000,"cc",28352.992,6.00,6,0.100,59598.000,0.200,6244.000,0.300,410.000,0.500,83.000,1.000,15.000,5.000,0
"03/08/08","07:11:27",51750.000,"cc",28369.824,6.00,6,0.100,46492.000,0.200,4865.000,0.300,321.000,0.500,55.000,1.000,17.000,5.000,0
"03/08/08","07:11:33",33380.000,"cc",28295.768,6.00,6,0.100,29877.000,0.200,3152.000,0.300,261.000,0.500,78.000,1.000,12.000,5.000,0
"03/08/08","07:11:39",58426.000,"cc",28274.955,6.00,6,0.100,52502.000,0.200,5514.000,0.300,329.000,0.500,72.000,1.000,9.000,5.000,0
"03/08/08","07:11:45",27679.000,"cc",28377.371,6.00,6,0.100,24772.000,0.200,2578.000,0.300,251.000,0.500,65.000,1.000,13.000,5.000,0
"03/08/08","07:11:51",29399.000,"cc",28286.473,6.00,6,0.100,26380.000,0.200,2703.000,0.300,223.000,0.500,80.000,1.000,13.000,5.000,0
"03/08/08","07:11:57",36763.000,"cc",28345.762,6.00,6,0.100,33027.000,0.200,3457.000,0.300,210.000,0.500,54.000,1.000,15.000,5.000,0
"03/08/08","07:12:03",74891.000,"cc",28330.225,6.00,6,0.100,66755.000,0.200,7458.000,0.300,490.000,0.500,157.000,1.000,31.000,5.000,0
"03/08/08","07:12:09",20808.000,"cc",28249.889,6.00,6,0.100,18706.000,0.200,1900.000,0.300,162.000,0.500,39.000,1.000,1.000,5.000,0
"03/08/08","07:12:15",58459.000,"cc",28315.898,6.00,6,0.100,52454.000,0.200,5510.000,0.300,386.000,0.500,94.000,1.000,15.000,5.000,0
"03/08/08","07:12:21",34088.000,"cc",28349.947,6.00,6,0.100,30538.000,0.200,3279.000,0.300,219.000,0.500,44.000,1.000,8.000,5.000,0
"03/08/08","07:12:27",38922.000,"cc",28332.266,6.00,6,0.100,34812.000,0.200,3753.000,0.300,278.000,0.500,71.000,1.000,8.000,5.000,0
"03/08/08","07:12:33",36094.000,"cc",28305.674,6.00,6,0.100,32221.000,0.200,3526.000,0.300,258.000,0.500,82.000,1.000,7.000,5.000,0
"03/08/08","07:12:39",44341.000,"cc",28305.205,6.00,6,0.100,39734.000,0.200,4209.000,0.300,303.000,0.500,82.000,1.000,13.000,5.000,0
"03/08/08","07:12:45",53889.000,"cc",28292.256,6.00,6,0.100,48407.000,0.200,5104.000,0.300,281.000,0.500,85.000,1.000,12.000,5.000,0
"03/08/08","07:12:51",60409.000,"cc",28332.787,6.00,6,0.100,54051.000,0.200,5892.000,0.300,366.000,0.500,86.000,1.000,14.000,5.000,0
"03/08/08","07:12:57",36108.000,"cc",28361.889,6.00,6,0.100,32335.000,0.200,3424.000,0.300,270.000,0.500,62.000,1.000,17.000,5.000,0
"03/08/08","07:13:03",32990.000,"cc",28365.484,6.00,6,0.100,29447.000,0.200,3137.000,0.300,297.000,0.500,92.000,1.000,17.000,5.000,0
"03/08/08","07:13:09",17200.000,"cc",28211.238,6.00,6,0.100,15193.000,0.200,1704.000,0.300,206.000,0.500,87.000,1.000,10.000,5.000,0
"03/08/08","07:13:15",22361.000,"cc",28327.291,6.00,6,0.100,19904.000,0.200,2109.000,0.300,256.000,0.500,82.000,1.000,10.000,5.000,0
"03/08/08","07:13:21",42511.000,"cc",28314.168,6.00,6,0.100,38019.000,0.200,4084.000,0.300,297.000,0.500,92.000,1.000,19.000,5.000,0
"03/08/08","07:13:27",19171.000,"cc",28336.959,6.00,6,0.100,17020.000,0.200,1851.000,0.300,206.000,0.500,82.000,1.000,12.000,5.000,0
"03/08/08","07:13:33",43394.000,"cc",28362.701,6.00,6,0.100,38873.000,0.200,4113.000,0.300,290.000,0.500,101.000,1.000,17.000,5.000,0
"03/08/08","07:13:39",37108.000,"cc",28197.924,6.00,6,0.100,33108.000,0.200,3582.000,0.300,289.000,0.500,105.000,1.000,24.000,5.000,0
"03/08/08","07:13:45",38515.000,"cc",28348.326,6.00,6,0.100,34270.000,0.200,3701.000,0.300,359.000,0.500,161.000,1.000,24.000,5.000,0
"03/08/08","07:13:51",21180.000,"cc",28331.982,6.00,6,0.100,18871.000,0.200,1975.000,0.300,226.000,0.500,95.000,1.000,13.000,5.000,0
"03/08/08","07:13:57",14980.000,"cc",28326.352,6.00,6,0.100,13225.000,0.200,1421.000,0.300,227.000,0.500,92.000,1.000,15.000,5.000,0
"03/08/08","07:14:03",15821.000,"cc",28327.836,6.00,6,0.100,13946.000,0.200,1542.000,0.300,216.000,0.500,100.000,1.000,17.000,5.000,0
"03/08/08","07:14:09",27111.000,"cc",28280.652,6.00,6,0.100,24202.000,0.200,2555.000,0.300,233.000,0.500,107.000,1.000,14.000,5.000,0
"03/08/08","07:14:15",22882.000,"cc",28290.150,6.00,6,0.100,20325.000,0.200,2133.000,0.300,291.000,0.500,117.000,1.000,16.000,5.000,0
"03/08/08","07:14:21",41301.000,"cc",28285.916,6.00,6,0.100,36585.000,0.200,4046.000,0.300,445.000,0.500,194.000,1.000,31.000,5.000,0
"03/08/08","07:14:27",29001.000,"cc",28291.883,6.00,6,0.100,25863.000,0.200,2682.000,0.300,308.000,0.500,134.000,1.000,14.000,5.000,0
"03/08/08","07:14:33",63124.000,"cc",28353.301,6.00,6,0.100,56652.000,0.200,5883.000,0.300,409.000,0.500,161.000,1.000,19.000,5.000,0
"03/08/08","07:14:39",72632.000,"cc",28380.223,6.00,6,0.100,65084.000,0.200,6922.000,0.300,448.000,0.500,156.000,1.000,22.000,5.000,0
"03/08/08","07:14:45",93885.000,"cc",28317.498,6.00,6,0.100,84310.000,0.200,8838.000,0.300,527.000,0.500,190.000,1.000,20.000,5.000,0
"03/08/08","07:14:51",74826.000,"cc",28341.918,6.00,6,0.100,67146.000,0.200,6983.000,0.300,507.000,0.500,161.000,1.000,29.000,5.000,0
"03/08/08","07:14:57",43168.000,"cc",28292.568,6.00,6,0.100,38738.000,0.200,4018.000,0.300,271.000,0.500,125.000,1.000,16.000,5.000,0
"03/08/08","07:15:03",57150.000,"cc",28302.525,6.00,6,0.100,51233.000,0.200,5346.000,0.300,421.000,0.500,134.000,1.000,16.000,5.000,0
"03/08/08","07:15:09",82823.000,"cc",28238.199,6.00,6,0.100,74265.000,0.200,7841.000,0.300,529.000,0.500,166.000,1.000,22.000,5.000,0
"03/08/08","07:15:15",30489.000,"cc",28339.459,6.00,6,0.100,27373.000,0.200,2758.000,0.300,256.000,0.500,97.000,1.000,5.000,5.000,0
"03/08/08","07:15:21",42635.000,"cc",28455.117,6.00,6,0.100,38312.000,0.200,3905.000,0.300,299.000,0.500,103.000,1.000,16.000,5.000,0
"03/08/08","07:15:27",74934.000,"cc",28244.881,6.00,6,0.100,67262.000,0.200,7056.000,0.300,455.000,0.500,145.000,1.000,16.000,5.000,0
"03/08/08","07:15:33",50373.000,"cc",28267.516,6.00,6,0.100,44968.000,0.200,4792.000,0.300,428.000,0.500,159.000,1.000,26.000,5.000,0
"03/08/08","07:15:39",72513.000,"cc",28288.764,6.00,6,0.100,64917.000,0.200,6919.000,0.300,466.000,0.500,185.000,1.000,26.000,5.000,0
"03/08/08","07:15:45",48338.000,"cc",28319.990,6.00,6,0.100,43379.000,0.200,4504.000,0.300,327.000,0.500,106.000,1.000,22.000,5.000,0
"03/08/08","07:15:51",60751.000,"cc",28316.553,6.00,6,0.100,54469.000,0.200,5786.000,0.300,367.000,0.500,120.000,1.000,9.000,5.000,0
"03/08/08","07:15:57",43756.000,"cc",28267.117,6.00,6,0.100,39304.000,0.200,4052.000,0.300,302.000,0.500,88.000,1.000,10.000,5.000,0
"03/08/08","07:16:03",33029.000,"cc",28351.879,6.00,6,0.100,29532.000,0.200,3097.000,0.300,276.000,0.500,110.000,1.000,14.000,5.000,0
"03/08/08","07:16:09",28206.000,"cc",28324.529,6.00,6,0.100,25177.000,0.200,2663.000,0.300,258.000,0.500,105.000,1.000,3.000,5.000,0
"03/08/08","07:16:15",34999.000,"cc",28318.582,6.00,6,0.100,31293.000,0.200,3349.000,0.300,249.000,0.500,95.000,1.000,13.000,5.000,0
"03/08/08","07:16:21",44960.000,"cc",28373.432,6.00,6,0.100,40138.000,0.200,4241.000,0.300,392.000,0.500,164.000,1.000,25.000,5.000,0
"03/08/08","07:16:27",14440.000,"cc",28367.647,6.00,6,0.100,12845.000,0.200,1329.000,0.300,177.000,0.500,80.000,1.000,9.000,5.000,0
"03/08/08","07:16:33",28979.000,"cc",28316.920,6.00,6,0.100,25936.000,0.200,2684.000,0.300,238.000,0.500,102.000,1.000,19.000,5.000,0
"03/08/08","07:16:39",46787.000,"cc",28319.725,6.00,6,0.100,42269.000,0.200,4149.000,0.300,263.000,0.500,99.000,1.000,7.000,5.000,0
"03/08/08","07:16:45",45451.000,"cc",28305.606,6.00,6,0.100,40944.000,0.200,4104.000,0.300,270.000,0.500,109.000,1.000,24.000,5.000,0
"03/08/08","07:16:51",42966.000,"cc",28252.643,6.00,6,0.100,38647.000,0.200,3872.000,0.300,294.000,0.500,131.000,1.000,22.000,5.000,0
"03/08/08","07:16:57",50046.000,"cc",28361.041,6.00,6,0.100,44987.000,0.200,4500.000,0.300,378.000,0.500,155.000,1.000,26.000,5.000,0
"03/08/08","07:17:03",54805.000,"cc",28269.195,6.00,6,0.100,49076.000,0.200,5066.000,0.300,457.000,0.500,172.000,1.000,34.000,5.000,0
"03/08/08","07:17:09",24217.000,"cc",28392.221,6.00,6,0.100,21625.000,0.200,2225.000,0.300,223.000,0.500,133.000,1.000,11.000,5.000,0
"03/08/08","07:17:15",67084.000,"cc",28287.293,6.00,6,0.100,59839.000,0.200,6353.000,0.300,586.000,0.500,260.000,1.000,46.000,5.000,0
"03/08/08","07:17:21",68375.000,"cc",28279.098,6.00,6,0.100,61341.000,0.200,6376.000,0.300,459.000,0.500,176.000,1.000,23.000,5.000,0